Weather observations for the past three days for
San Diego International Airport
Imperial (Metric)
Date Time (pdt) Wind (mph) Vis. (mi.) Weather Sky Cond. Temperature (ºF) Relative Humidity Wind Chill (°F) Heat Index (°F) Pressure Precipitation (in)
Air Dwpt 6 hour altimeter (in) sea level (mb) 1 hr 3 hr 6 hr
Max. Min.
22 02:51 W 3 10.00 Fair CLR 68 63 84% 29.87 1011.3
22 01:51 Calm 10.00 Fair CLR 68 63 84% 29.88 1011.7
22 00:51 NW 3 10.00 A Few Clouds FEW180 68 62.1 81% 29.88 1011.7
21 23:51 W 3 10.00 A Few Clouds FEW011 69.1 62.1 78% 29.9 1012.5
21 22:51 Vrbl 5 10.00 A Few Clouds FEW011 69.1 62.1 73.9 69.1 78% 29.9 1012.5
21 21:51 S 5 10.00 A Few Clouds FEW011 69.1 62.1 78% 29.91 1012.7
21 20:51 S 5 10.00 Partly Cloudy SCT011 69.1 62.1 78% 29.9 1012.6
21 19:51 Vrbl 7 10.00 Mostly Cloudy SCT012 BKN180 70 62.1 76% 29.89 1012.2
21 18:51 SW 7 10.00 Mostly Cloudy BKN012 BKN180 71.1 63 76% 29.89 1012.1
21 17:51 SW 8 10.00 Mostly Cloudy SCT013 BKN180 73 64 74% 29.89 1012.1
21 16:51 SW 8 10.00 Partly Cloudy SCT013 73.9 64 75 73 71% 29.9 1012.4
21 15:51 SW 9 10.00 Partly Cloudy SCT013 73.9 64 71% 29.92 1013.0
21 14:51 SW 8 10.00 Partly Cloudy SCT013 73.9 64 71% 29.92 1013.0
21 13:51 SW 8 G 20 10.00 Partly Cloudy SCT013 73.9 64 71% 29.93 1013.6
21 12:51 S 9 10.00 Partly Cloudy SCT013 73.9 64.9 74% 29.94 1013.7
21 11:51 SW 9 10.00 Partly Cloudy SCT013 75 64.9 71% 77 29.95 1014.0
21 10:51 S 8 10.00 A Few Clouds FEW013 73.9 64.9 73.9 69.1 74% 29.94 1013.9
21 09:51 S 8 10.00 Partly Cloudy SCT013 73 64.9 76% 29.94 1013.9
21 08:51 S 6 10.00 Overcast OVC010 69.1 64.9 87% 29.93 1013.4
21 07:51 Calm 9.00 Overcast OVC008 71.1 64.9 81% 29.92 1013.1
21 06:51 Calm 9.00 Overcast OVC008 70 64.9 84% 29.9 1012.5
21 05:51 NW 3 9.00 Overcast OVC008 69.1 64.9 87% 29.89 1012.0
21 04:51 Calm 10.00 Overcast OVC008 69.1 64.9 70 69.1 87% 29.88 1011.8
21 03:51 W 5 10.00 Overcast OVC008 70 64.9 84% 29.89 1012.0
21 02:51 NW 3 10.00 Overcast OVC008 69.1 64.9 87% 29.89 1012.0
21 01:51 NW 5 10.00 Mostly Cloudy BKN008 69.1 64.9 87% 29.9 1012.5
21 00:51 NW 3 10.00 Mostly Cloudy BKN008 BKN150 69.1 64.9 87% 29.91 1012.8
20 23:51 NW 3 10.00 Partly Cloudy FEW009 SCT150 69.1 64.9 87% 29.92 1013.1
20 22:51 W 3 10.00 Partly Cloudy FEW008 SCT180 69.1 64.9 75.9 69.1 87% 29.93 1013.4
20 21:51 NW 6 10.00 Partly Cloudy FEW008 SCT180 69.1 64.9 87% 29.93 1013.3
20 20:51 NW 7 10.00 Partly Cloudy FEW008 SCT180 70 64.9 84% 29.91 1012.8
20 19:51 NW 6 10.00 Partly Cloudy FEW008 SCT180 71.1 64 79% 29.9 1012.3
20 18:51 W 8 10.00 Partly Cloudy FEW008 FEW050 SCT180 73 64 74% 29.89 1012.0
20 17:51 NW 8 10.00 Partly Cloudy FEW008 FEW050 SCT180 73.9 64 71% 29.89 1012.2
20 16:51 W 12 10.00 Partly Cloudy FEW008 FEW040 SCT180 73.9 64 78.1 73.9 71% 29.9 1012.5
20 15:51 W 9 10.00 Partly Cloudy FEW008 FEW050 SCT180 75 64.9 71% 77 29.91 1012.9
20 14:51 W 12 G 20 10.00 Partly Cloudy FEW008 FEW050 SCT180 77 64.9 66% 79 29.93 1013.3
20 13:51 NW 10 10.00 Partly Cloudy FEW008 FEW050 SCT180 77 66 69% 79 29.93 1013.5
20 12:51 W 13 10.00 A Few Clouds FEW008 FEW180 75.9 64.9 69% 78 29.95 1014.0
20 11:51 W 12 9.00 Partly Cloudy FEW008 SCT200 75.9 66 72% 77 29.96 1014.3
20 10:51 NW 8 9.00 Partly Cloudy FEW008 SCT200 75.9 66 75.9 69.1 72% 77 29.96 1014.6
20 09:51 W 9 7.00 Mostly Cloudy SCT006 BKN200 72 66 82% 29.96 1014.6
20 08:51 NW 7 7.00 Mostly Cloudy BKN006 BKN200 71.1 66 84% 29.96 1014.5
20 07:51 N 6 6.00 Fog/Mist OVC006 70 66 87% 29.95 1014.2
20 06:51 NW 3 5.00 Fog/Mist OVC004 69.1 64.9 87% 29.94 1013.9
20 05:51 N 3 8.00 Overcast OVC005 69.1 66 90% 29.93 1013.6
20 04:51 Vrbl 3 8.00 Overcast OVC006 70 66 70 69.1 87% 29.92 1013.2
20 03:51 NE 5 10.00 Overcast OVC006 70 66 87% 29.92 1013.2
20 02:51 N 5 10.00 Overcast OVC007 70 66 87% 29.92 1013.2
20 01:51 N 5 10.00 Mostly Cloudy BKN008 70 66 87% 29.93 1013.5
20 00:51 NW 5 10.00 Partly Cloudy SCT010 69.1 64.9 87% 29.93 1013.5
19 23:51 N 5 10.00 A Few Clouds FEW010 69.1 64.9 87% 29.94 1013.9
19 22:51 NW 3 10.00 A Few Clouds FEW010 69.1 64.9 75 69.1 87% 29.95 1014.0
19 21:51 NW 7 10.00 A Few Clouds FEW012 70 64 82% 29.95 1014.0
19 20:51 NW 8 10.00 A Few Clouds FEW012 69.1 64 84% 29.94 1013.7
19 19:51 NW 7 10.00 A Few Clouds FEW012 FEW200 70 64 82% 29.93 1013.4
19 18:51 NW 8 10.00 A Few Clouds FEW012 FEW200 72 64 76% 29.92 1013.1
19 17:51 NW 8 10.00 A Few Clouds FEW012 FEW070 73 64.9 76% 29.93 1013.3
19 16:51 W 8 10.00 A Few Clouds FEW012 FEW050 75 64.9 78.1 75 71% 77 29.94 1013.6
19 15:51 NW 7 10.00 Partly Cloudy SCT012 SCT050 75.9 66 72% 77 29.95 1014.2
19 14:51 NW 9 10.00 A Few Clouds FEW016 FEW050 77 66 69% 79 29.97 1014.9
19 13:51 Vrbl 7 G 17 10.00 Partly Cloudy SCT016 SCT050 75.9 66 72% 77 29.99 1015.6
19 12:51 W 8 10.00 A Few Clouds FEW012 FEW050 75.9 66 72% 77 29.99 1015.6
19 11:51 W 9 10.00 A Few Clouds FEW011 FEW050 75 66 74% 76 30.01 1016.2
19 10:51 W 10 10.00 A Few Clouds FEW011 FEW050 75 64.9 75.9 68 71% 77 30.01 1016.3
19 09:51 W 8 10.00 A Few Clouds FEW011 FEW250 73 64.9 76% 30 1015.8
19 08:51 Vrbl 3 10.00 Partly Cloudy SCT010 SCT250 72 64 76% 30 1016.0
19 07:51 W 5 9.00 Partly Cloudy SCT010 70 64 82% 30 1015.8
19 06:51 Calm 10.00 Mostly Cloudy SCT010 BKN150 69.1 64 84% 29.99 1015.4
19 05:51 Calm 10.00 Mostly Cloudy BKN010 BKN150 68 62.1 81% 29.98 1015.2
19 04:51 Calm 10.00 Overcast OVC009 68 63 69.1 66.9 84% 29.98 1015.1
19 03:51 N 6 10.00 Overcast OVC010 69.1 63 81% 29.97 1014.9
Date Time (pdt) Wind (mph) Vis. (mi.) Weather Sky Cond. Air Dwpt Max. Min. Relative Humidity Wind Chill (°F) Heat Index (°F) altimeter (in) sea level (mb) 1 hr 3 hr 6 hr
6 hour
Temperature (ºF) Pressure Precipitation (in)